TimeCST,TemperatureF,Dew PointF,Humidity,Sea Level PressureIn,VisibilityMPH,Wind Direction,Wind SpeedMPH,Gust SpeedMPH,PrecipitationIn,Events,Conditions,WindDirDegrees,DateUTC
12:52 AM,7.0,3.9,87,30.25,10.0,WSW,4.6,-,N/A,,Clear,250,2013-01-06 06:52:00
1:52 AM,3.9,1.9,91,30.25,10.0,North,3.5,-,N/A,,Clear,350,2013-01-06 07:52:00
2:52 AM,3.9,1.0,88,30.26,10.0,WNW,4.6,-,N/A,,Clear,290,2013-01-06 08:52:00
3:52 AM,8.1,5.0,87,30.26,10.0,West,5.8,-,N/A,,Clear,270,2013-01-06 09:52:00
4:52 AM,3.0,-0.0,87,30.26,7.0,South,3.5,-,N/A,,Clear,170,2013-01-06 10:52:00
5:52 AM,5.0,1.9,87,30.25,8.0,East,3.5,-,N/A,,Clear,90,2013-01-06 11:52:00
6:52 AM,3.0,-0.0,87,30.24,9.0,ENE,5.8,-,N/A,,Clear,60,2013-01-06 12:52:00
7:33 AM,1.4,-0.4,92,30.11,0.8,ENE,5.8,-,N/A,,Mist,60,2013-01-06 13:33:00
7:52 AM,3.0,1.9,95,30.23,0.2,Calm,Calm,-,N/A,Fog,Light Freezing Fog,0,2013-01-06 13:52:00
8:03 AM,3.2,1.4,92,30.10,0.2,ENE,6.9,-,N/A,Fog,Light Freezing Fog,70,2013-01-06 14:03:00
8:12 AM,5.0,3.0,92,30.09,0.2,ENE,6.9,-,N/A,Fog,Light Freezing Fog,70,2013-01-06 14:12:00
8:21 AM,5.0,3.2,92,30.09,0.2,NE,6.9,-,N/A,Fog,Light Freezing Fog,50,2013-01-06 14:21:00
8:23 AM,5.0,3.0,92,30.09,0.2,ENE,8.1,-,N/A,Fog,Light Freezing Fog,60,2013-01-06 14:23:00
8:37 AM,3.9,3.0,96,30.09,0.2,NE,6.9,-,N/A,Fog,Light Freezing Fog,50,2013-01-06 14:37:00
8:52 AM,3.9,1.9,91,30.21,3.0,ENE,8.1,-,N/A,,Mostly Cloudy,60,2013-01-06 14:52:00
9:07 AM,5.0,1.4,85,30.08,4.0,ENE,8.1,-,N/A,,Scattered Clouds,60,2013-01-06 15:07:00
9:52 AM,5.0,3.0,92,30.21,7.0,East,4.6,-,N/A,,Clear,80,2013-01-06 15:52:00
10:45 AM,8.1,5.0,87,30.06,7.0,ENE,3.5,-,N/A,,Partly Cloudy,70,2013-01-06 16:45:00
10:52 AM,8.1,5.0,87,30.17,8.0,ENE,4.6,-,N/A,,Partly Cloudy,60,2013-01-06 16:52:00
11:52 AM,12.0,10.0,92,30.15,10.0,East,3.5,-,N/A,,Clear,90,2013-01-06 17:52:00
12:52 PM,16.0,14.0,92,30.09,10.0,East,5.8,-,N/A,,Clear,100,2013-01-06 18:52:00
1:52 PM,17.1,12.9,84,30.02,10.0,ESE,11.5,-,N/A,,Clear,120,2013-01-06 19:52:00
2:52 PM,19.0,15.1,85,29.98,10.0,SE,9.2,-,N/A,,Clear,130,2013-01-06 20:52:00
3:52 PM,21.0,15.1,78,29.94,10.0,SE,8.1,-,N/A,,Clear,130,2013-01-06 21:52:00
4:52 PM,23.0,17.1,78,29.92,10.0,South,9.2,-,N/A,,Clear,170,2013-01-06 22:52:00
5:52 PM,19.0,14.0,81,29.90,10.0,Calm,Calm,-,N/A,,Clear,0,2013-01-06 23:52:00
6:52 PM,18.0,14.0,84,29.88,10.0,Calm,Calm,-,N/A,,Clear,0,2013-01-07 00:52:00
7:52 PM,18.0,14.0,84,29.87,10.0,Calm,Calm,-,N/A,,Clear,0,2013-01-07 01:52:00
8:52 PM,16.0,12.9,88,29.87,10.0,SW,4.6,-,N/A,,Clear,230,2013-01-07 02:52:00
9:52 PM,17.1,14.0,88,29.87,10.0,Calm,Calm,-,N/A,,Clear,0,2013-01-07 03:52:00
10:52 PM,10.0,7.0,87,29.88,10.0,Calm,Calm,-,N/A,,Clear,0,2013-01-07 04:52:00
11:52 PM,19.9,14.0,78,29.86,10.0,West,4.6,-,N/A,,Mostly Cloudy,270,2013-01-07 05:52:00